CST,Max TemperatureF,Mean TemperatureF,Min TemperatureF,Max Dew PointF,MeanDew PointF,Min DewpointF,Max Humidity, Mean Humidity, Min Humidity, Max Sea Level PressureIn, Mean Sea Level PressureIn, Min Sea Level PressureIn, Max VisibilityMiles, Mean VisibilityMiles, Min VisibilityMiles, Max Wind SpeedMPH, Mean Wind SpeedMPH, Max Gust SpeedMPH,PrecipitationIn, CloudCover, Events, WindDirDegrees
2012-12-1,66,52,37,52,46,34,100,71,59,30.19,30.12,30.05,10,9,3,18,6,23,0.00,4,,181
2012-12-2,64,60,57,57,54,48,94,77,59,30.09,30.06,30.02,10,9,5,23,15,31,0.00,7,,199
2012-12-3,69,64,59,59,56,54,88,78,64,30.09,30.05,30.00,10,10,10,26,13,37,0.00,4,,193
2012-12-4,62,48,33,57,45,30,94,81,58,30.31,30.15,30.00,10,10,1,14,7,17,0.04,0,,301
2012-12-5,55,42,28,37,32,25,93,72,44,30.39,30.30,30.19,10,10,10,10,3,,0.00,0,,51
2012-12-6,51,42,33,43,36,28,93,77,62,30.18,30.06,29.97,10,10,10,7,4,,0.00,5,,82
2012-12-7,59,50,42,54,49,39,100,91,77,29.97,29.89,29.83,10,6,0,9,1,,0.05,7,,196
2012-12-8,51,48,44,48,44,39,100,86,76,30.01,29.95,29.86,10,7,1,13,3,18,0.04,,,25
2012-12-9,55,50,44,54,46,36,94,89,71,29.97,29.84,29.75,10,4,0,12,5,,0.06,,Thunderstorm,25
2012-12-10,42,36,30,36,24,18,81,72,60,30.08,29.94,29.84,10,10,10,12,4,17,0.03,8,,299
2012-12-11,39,30,21,23,20,16,86,67,48,30.26,30.16,30.08,10,10,10,14,4,17,0.00,2,,228
2012-12-12,48,32,17,28,22,16,100,71,40,30.39,30.33,30.26,10,10,9,9,2,,0.00,0,,165
2012-12-13,51,34,17,28,23,14,93,65,35,30.39,30.32,30.24,10,10,10,14,4,17,0.00,0,,186
2012-12-14,53,38,23,34,28,18,93,62,38,30.28,30.20,30.08,10,10,10,16,3,18,0.00,1,,180
2012-12-15,57,50,44,52,45,32,93,81,57,30.05,29.82,29.69,10,10,7,24,10,34,0.20,7,,181
2012-12-16,51,42,32,48,41,28,100,86,71,29.78,29.74,29.69,10,8,0,7,4,,0.00,1,,239
2012-12-17,42,40,39,39,38,32,93,87,75,29.82,29.72,29.65,10,4,1,12,5,17,0.00,7,Thunderstorm,360
2012-12-18,53,42,30,39,35,25,87,73,54,29.92,29.82,29.73,10,10,3,22,7,29,0.01,2,,209
2012-12-19,55,40,26,46,35,25,93,76,62,30.05,29.92,29.63,10,8,4,13,6,21,0.00,3,,76
2012-12-20,57,44,28,54,35,19,94,75,57,29.90,29.55,29.29,10,9,2,33,14,48,0.52,8,Thunderstorm,245
2012-12-21,35,30,26,19,16,12,69,57,44,30.29,30.14,29.90,10,10,10,18,10,31,0.00,1,,282
2012-12-22,44,30,17,21,19,14,93,64,37,30.33,30.20,30.01,10,10,10,12,2,,0.00,0,,181
2012-12-23,57,44,32,34,30,23,81,61,38,30.00,29.94,29.86,10,10,5,10,5,,0.00,2,,220
2012-12-24,42,34,26,36,28,21,87,75,66,30.13,29.95,29.79,10,7,3,10,4,18,0.00,8,,321
2012-12-25,35,30,24,27,23,18,86,73,60,30.23,30.11,29.88,10,8,2,22,8,31,0.00,7,,28
2012-12-26,33,30,28,28,25,23,93,78,70,30.15,29.93,29.76,10,6,0,22,12,31,0.02,8,,343
2012-12-27,33,30,28,25,22,19,86,73,60,30.23,30.17,30.11,10,10,10,8,3,,0.02,8,,116
2012-12-28,35,32,28,30,27,23,93,82,70,30.11,30.00,29.87,10,7,0,8,3,,0.00,7,,106
2012-12-29,32,21,8,28,21,3,93,81,64,30.37,30.13,29.87,10,6,2,10,1,18,0.00,6,,277
2012-12-30,33,19,5,25,15,0,100,80,65,30.49,30.40,30.29,10,7,0,12,3,,0.00,1,,194
2012-12-31,35,32,30,32,29,25,93,83,70,30.29,30.18,30.08,10,6,1,15,8,,0.14,7,,209